Find Raijin

NORAD ID: 33494 Int'l Des: 2009-002 Owner: TOHO Country: J operational
LEOCIRCULARRETROGRADESSO

リアルタイム位置

3D地球を読み込み中...

Raijinについて

説明を読み込み中...

次回通過

Passes for default location (London). Set your location on the main map for personalized predictions.

高度履歴

Loading altitude history...

軌道要素

1 33494U 09002C 26137.69128939 .00000337 00000-0 57469-4 0 9998
2 33494 98.1542 42.4617 0004849 96.2009 263.9752 14.75318376929312
Epoch: May 17, 2026 • Age: 11 hours

現在のステータス

高度 657.8 km
速度 7.53 km/s
衛星直下点 -31.99°S, 67.76°W
打ち上げ日 Jan 23, 2009
運用期間 17.3 years
タイプ other

技術仕様

分類 Payload
質量 20.00 kg
乾燥質量 20.00 kg
総質量 20.00 kg
長さ 0.40 m
直径 0.30 m
スパン 0.40 m
形状 Box + Ant
製造者 TOHO
バスタイプ SpriteSat
フェーズステータス In Orbit
所有者/国 TOHO/J

Most Searched